Time,TemperatureF,DewpointF,PressureIn,WindDirection,WindDirectionDegrees,WindSpeedMPH,WindSpeedGustMPH,Humidity,HourlyPrecipIn,Conditions,Clouds,dailyrainin,SoftwareType,DateUTC
2013-11-21 00:02:00,45.9,40.4,30.10,SE,143,1.0,5.0,81,0.00,,SKC,0.00,VWS V12.07,2013-11-21 06:02:00,
2013-11-21 00:08:00,46.1,40.3,30.09,ESE,116,1.0,5.0,80,0.00,,SKC,0.00,VWS V12.07,2013-11-21 06:08:00,
2013-11-21 00:14:00,46.2,40.4,30.09,East,96,2.0,7.0,80,0.00,,SKC,0.00,VWS V12.07,2013-11-21 06:14:00,
2013-11-21 00:20:00,46.3,40.2,30.10,SE,145,1.0,7.0,79,0.00,,SKC,0.00,VWS V12.07,2013-11-21 06:20:00,
2013-11-21 00:26:00,46.4,40.2,30.09,ESE,122,0.0,7.0,79,0.00,,SKC,0.00,VWS V12.07,2013-11-21 06:26:00,
2013-11-21 00:32:00,46.5,40.3,30.09,SE,141,2.0,4.0,79,0.00,,SKC,0.00,VWS V12.07,2013-11-21 06:32:00,
2013-11-21 00:38:00,46.6,40.5,30.09,SSE,161,2.0,8.0,79,0.00,,SKC,0.00,VWS V12.07,2013-11-21 06:38:00,
2013-11-21 00:44:00,46.7,40.2,30.09,SE,131,4.0,8.0,78,0.00,,SKC,0.00,VWS V12.07,2013-11-21 06:44:00,
2013-11-21 00:49:00,46.7,40.5,30.09,SSE,148,3.0,8.0,79,0.00,,SKC,0.00,VWS V12.07,2013-11-21 06:49:00,
2013-11-21 00:55:00,46.8,40.3,30.09,SE,130,3.0,8.0,78,0.00,,SKC,0.00,VWS V12.07,2013-11-21 06:55:00,
2013-11-21 01:01:00,46.8,40.3,30.09,SE,139,1.0,8.0,78,0.00,,SKC,0.00,VWS V12.07,2013-11-21 07:01:00,
2013-11-21 01:07:00,46.8,40.6,30.09,SE,136,1.0,3.0,79,0.00,,SKC,0.00,VWS V12.07,2013-11-21 07:07:00,
2013-11-21 01:13:00,46.9,40.4,30.09,SE,145,2.0,5.0,78,0.00,,SKC,0.00,VWS V12.07,2013-11-21 07:13:00,
2013-11-21 01:19:00,46.9,40.4,30.09,ESE,120,2.0,5.0,78,0.00,,SKC,0.00,VWS V12.07,2013-11-21 07:19:00,
2013-11-21 01:24:00,46.9,40.4,30.09,SSE,160,2.0,5.0,78,0.00,,SKC,0.00,VWS V12.07,2013-11-21 07:24:00,
2013-11-21 01:30:00,46.9,40.7,30.09,SSE,158,1.0,5.0,79,0.00,,SKC,0.00,VWS V12.07,2013-11-21 07:30:00,
2013-11-21 01:37:00,46.9,40.7,30.09,SSE,159,1.0,5.0,79,0.00,,SKC,0.00,VWS V12.07,2013-11-21 07:37:00,
2013-11-21 01:43:00,46.9,40.7,30.09,SSW,212,2.0,5.0,79,0.00,,SKC,0.00,VWS V12.07,2013-11-21 07:43:00,
2013-11-21 01:49:00,47.1,40.6,30.10,SSE,161,1.0,5.0,78,0.00,,SKC,0.00,VWS V12.07,2013-11-21 07:49:00,
2013-11-21 01:55:00,47.1,40.9,30.10,SE,141,5.0,5.0,79,0.00,,SKC,0.00,VWS V12.07,2013-11-21 07:55:00,
2013-11-21 02:01:00,47.2,40.7,30.11,SSE,164,3.0,5.0,78,0.00,,SKC,0.00,VWS V12.07,2013-11-21 08:01:00,
2013-11-21 02:07:00,47.3,40.8,30.11,SE,135,0.0,5.0,78,0.00,,SKC,0.00,VWS V12.07,2013-11-21 08:07:00,
2013-11-21 02:12:00,47.3,40.8,30.11,SE,141,1.0,5.0,78,0.00,,SKC,0.00,VWS V12.07,2013-11-21 08:12:00,
2013-11-21 02:18:00,47.4,40.9,30.11,SSW,197,0.0,5.0,78,0.00,,SKC,0.00,VWS V12.07,2013-11-21 08:18:00,
2013-11-21 02:24:00,47.5,41.3,30.10,SSW,198,1.0,5.0,79,0.00,,SKC,0.00,VWS V12.07,2013-11-21 08:24:00,
2013-11-21 02:30:00,47.5,41.0,30.10,SSW,193,2.0,5.0,78,0.00,,SKC,0.00,VWS V12.07,2013-11-21 08:30:00,
2013-11-21 02:36:00,47.6,41.1,30.10,SE,139,1.0,3.0,78,0.00,,SKC,0.00,VWS V12.07,2013-11-21 08:36:00,
2013-11-21 02:42:00,47.7,41.2,30.10,ESE,120,1.0,3.0,78,0.00,,SKC,0.00,VWS V12.07,2013-11-21 08:42:00,
2013-11-21 02:48:00,47.7,41.2,30.10,SSE,148,0.0,3.0,78,0.00,,SKC,0.00,VWS V12.07,2013-11-21 08:48:00,
2013-11-21 02:54:00,47.7,41.2,30.10,South,184,0.0,3.0,78,0.00,,SKC,0.00,VWS V12.07,2013-11-21 08:54:00,
2013-11-21 03:02:00,47.9,41.0,30.10,SE,142,0.0,0.0,77,0.00,,SKC,0.00,VWS V12.07,2013-11-21 09:02:00,
2013-11-21 03:08:00,47.9,41.0,30.09,ESE,121,1.0,1.0,77,0.00,,SKC,0.00,VWS V12.07,2013-11-21 09:08:00,
2013-11-21 03:14:00,47.9,41.0,30.10,SSE,165,0.0,2.0,77,0.00,,SKC,0.00,VWS V12.07,2013-11-21 09:14:00,
2013-11-21 03:20:00,47.9,41.0,30.10,South,169,0.0,3.0,77,0.00,,SKC,0.00,VWS V12.07,2013-11-21 09:20:00,
2013-11-21 03:26:00,47.9,41.0,30.09,SSE,154,0.0,3.0,77,0.00,,SKC,0.00,VWS V12.07,2013-11-21 09:26:00,
2013-11-21 03:32:00,48.0,41.2,30.09,SSE,150,0.0,0.0,77,0.00,,SKC,0.00,VWS V12.07,2013-11-21 09:32:00,
2013-11-21 03:38:00,48.0,41.2,30.08,SE,141,0.0,2.0,77,0.00,,SKC,0.00,VWS V12.07,2013-11-21 09:38:00,
2013-11-21 03:44:00,48.0,41.2,30.09,South,172,0.0,3.0,77,0.00,,SKC,0.00,VWS V12.07,2013-11-21 09:44:00,
2013-11-21 03:50:00,48.0,41.5,30.09,SSE,150,0.0,4.0,78,0.00,,SKC,0.00,VWS V12.07,2013-11-21 09:50:00,
2013-11-21 03:56:00,48.0,41.5,30.09,ESE,123,1.0,4.0,78,0.00,,SKC,0.00,VWS V12.07,2013-11-21 09:56:00,
2013-11-21 04:01:00,48.0,41.5,30.09,SSW,210,3.0,4.0,78,0.00,,SKC,0.00,VWS V12.07,2013-11-21 10:01:00,
2013-11-21 04:07:00,48.1,41.6,30.09,SE,129,0.0,3.0,78,0.00,,SKC,0.00,VWS V12.07,2013-11-21 10:07:00,
2013-11-21 04:13:00,48.1,41.2,30.10,SSE,166,1.0,5.0,77,0.00,,SKC,0.00,VWS V12.07,2013-11-21 10:13:00,
2013-11-21 04:19:00,48.2,41.7,30.09,SSE,156,0.0,5.0,78,0.00,,SKC,0.00,VWS V12.07,2013-11-21 10:19:00,
2013-11-21 04:25:00,48.2,41.7,30.09,SSE,155,0.0,5.0,78,0.00,,SKC,0.00,VWS V12.07,2013-11-21 10:25:00,
2013-11-21 04:31:00,48.1,41.2,30.10,SSE,159,0.0,5.0,77,0.00,,SKC,0.00,VWS V12.07,2013-11-21 10:31:00,
2013-11-21 04:37:00,48.2,41.7,30.10,SSE,160,0.0,2.0,78,0.00,,SKC,0.00,VWS V12.07,2013-11-21 10:37:00,
2013-11-21 04:43:00,48.1,41.6,30.10,SSW,193,0.0,2.0,78,0.00,,SKC,0.00,VWS V12.07,2013-11-21 10:43:00,
2013-11-21 04:49:00,48.1,41.6,30.10,SSW,203,0.0,2.0,78,0.00,,SKC,0.00,VWS V12.07,2013-11-21 10:49:00,
2013-11-21 04:55:00,48.0,41.5,30.10,SSE,157,0.0,2.0,78,0.00,,SKC,0.00,VWS V12.07,2013-11-21 10:55:00,
2013-11-21 05:01:00,48.1,41.6,30.10,SE,136,0.0,2.0,78,0.00,,SKC,0.00,VWS V12.07,2013-11-21 11:01:00,
2013-11-21 05:06:00,48.1,41.6,30.10,SE,137,0.0,0.0,78,0.00,,SKC,0.00,VWS V12.07,2013-11-21 11:06:00,
2013-11-21 05:12:00,48.1,41.2,30.10,SSW,207,0.0,1.0,77,0.00,,SKC,0.00,VWS V12.07,2013-11-21 11:12:00,
2013-11-21 05:18:00,48.3,41.4,30.10,SSW,208,0.0,2.0,77,0.00,,SKC,0.00,VWS V12.07,2013-11-21 11:18:00,
2013-11-21 05:24:00,48.4,41.5,30.10,SE,143,0.0,2.0,77,0.00,,SKC,0.00,VWS V12.07,2013-11-21 11:24:00,
2013-11-21 05:30:00,48.4,41.5,30.10,South,169,0.0,2.0,77,0.00,,SKC,0.00,VWS V12.07,2013-11-21 11:30:00,
2013-11-21 05:36:00,48.4,41.5,30.10,SW,225,0.0,0.0,77,0.00,,SKC,0.00,VWS V12.07,2013-11-21 11:36:00,
2013-11-21 05:42:00,48.3,41.4,30.10,SE,140,0.0,1.0,77,0.00,,SKC,0.00,VWS V12.07,2013-11-21 11:42:00,
2013-11-21 05:48:00,48.3,41.4,30.10,SE,141,0.0,1.0,77,0.00,,SKC,0.00,VWS V12.07,2013-11-21 11:48:00,
2013-11-21 05:54:00,48.3,41.4,30.10,SE,141,0.0,1.0,77,0.00,,SKC,0.00,VWS V12.07,2013-11-21 11:54:00,
2013-11-21 06:00:00,48.4,41.5,30.10,ESE,120,0.0,1.0,77,0.00,,SKC,0.00,VWS V12.07,2013-11-21 12:00:00,
2013-11-21 06:06:00,48.5,41.6,30.10,ESE,120,0.0,0.0,77,0.00,,SKC,0.00,VWS V12.07,2013-11-21 12:06:00,
2013-11-21 06:12:00,48.6,41.4,30.10,SSW,207,0.0,2.0,76,0.00,,SKC,0.00,VWS V12.07,2013-11-21 12:12:00,
2013-11-21 06:18:00,48.7,41.8,30.11,South,179,0.0,2.0,77,0.00,,SKC,0.00,VWS V12.07,2013-11-21 12:18:00,
2013-11-21 06:24:00,48.5,42.3,30.12,South,179,0.0,2.0,79,0.00,,SKC,0.00,VWS V12.07,2013-11-21 12:24:00,
2013-11-21 06:30:00,48.3,41.8,30.12,South,180,0.0,2.0,78,0.00,,SKC,0.00,VWS V12.07,2013-11-21 12:30:00,
2013-11-21 06:36:00,48.3,41.8,30.12,South,179,0.0,0.0,78,0.00,,SKC,0.00,VWS V12.07,2013-11-21 12:36:00,
2013-11-21 06:42:00,48.4,41.5,30.12,SSE,155,1.0,2.0,77,0.00,,SKC,0.00,VWS V12.07,2013-11-21 12:42:00,
2013-11-21 06:48:00,48.5,41.6,30.12,SSE,148,0.0,2.0,77,0.00,,SKC,0.00,VWS V12.07,2013-11-21 12:48:00,
2013-11-21 06:54:00,48.5,41.6,30.12,SSE,148,0.0,2.0,77,0.00,,SKC,0.00,VWS V12.07,2013-11-21 12:54:00,
2013-11-21 07:00:00,48.5,41.6,30.13,SSE,148,0.0,2.0,77,0.00,,SKC,0.00,VWS V12.07,2013-11-21 13:00:00,
2013-11-21 07:06:00,48.6,41.7,30.12,SE,145,0.0,0.0,77,0.00,,SKC,0.00,VWS V12.07,2013-11-21 13:06:00,
2013-11-21 07:11:00,48.6,41.7,30.12,SE,129,0.0,0.0,77,0.00,,SKC,0.00,VWS V12.07,2013-11-21 13:11:00,
2013-11-21 07:16:00,48.6,41.7,30.12,SE,131,1.0,1.0,77,0.00,,SKC,0.00,VWS V12.07,2013-11-21 13:16:00,
2013-11-21 07:22:00,48.7,42.2,30.12,SSE,148,0.0,3.0,78,0.00,,SKC,0.00,VWS V12.07,2013-11-21 13:22:00,
2013-11-21 07:28:00,48.7,42.2,30.12,ESE,117,0.0,3.0,78,0.00,,SKC,0.00,VWS V12.07,2013-11-21 13:28:00,
2013-11-21 07:34:00,48.7,42.5,30.13,SSE,166,0.0,2.0,79,0.00,,SKC,0.00,VWS V12.07,2013-11-21 13:34:00,
2013-11-21 07:40:00,48.7,42.5,30.12,SSE,151,0.0,2.0,79,0.00,,SKC,0.00,VWS V12.07,2013-11-21 13:40:00,
2013-11-21 07:46:00,48.8,42.3,30.13,SSE,157,1.0,2.0,78,0.00,,SKC,0.00,VWS V12.07,2013-11-21 13:46:00,
2013-11-21 07:52:00,48.9,42.3,30.13,ESE,112,1.0,3.0,78,0.00,,SKC,0.00,VWS V12.07,2013-11-21 13:52:00,
2013-11-21 07:58:00,49.0,42.5,30.12,SSE,153,3.0,3.0,78,0.00,,SKC,0.00,VWS V12.07,2013-11-21 13:58:00,
2013-11-21 08:04:00,49.1,42.5,30.12,SE,126,1.0,3.0,78,0.00,,SKC,0.00,VWS V12.07,2013-11-21 14:04:00,
2013-11-21 08:10:00,49.1,42.5,30.13,SE,136,0.0,3.0,78,0.00,,SKC,0.00,VWS V12.07,2013-11-21 14:10:00,
2013-11-21 08:16:00,49.2,42.6,30.13,SE,136,0.0,3.0,78,0.00,,SKC,0.00,VWS V12.07,2013-11-21 14:16:00,
2013-11-21 08:22:00,49.3,42.7,30.13,SSE,148,1.0,3.0,78,0.00,,SKC,0.00,VWS V12.07,2013-11-21 14:22:00,
2013-11-21 08:28:00,49.5,42.9,30.12,East,92,2.0,3.0,78,0.00,,SKC,0.00,VWS V12.07,2013-11-21 14:28:00,
2013-11-21 08:34:00,49.6,43.0,30.12,East,87,3.0,4.0,78,0.00,,SKC,0.00,VWS V12.07,2013-11-21 14:34:00,
2013-11-21 08:40:00,49.7,43.1,30.13,East,101,2.0,4.0,78,0.00,,SKC,0.00,VWS V12.07,2013-11-21 14:40:00,
2013-11-21 08:46:00,49.7,43.1,30.13,SSE,148,1.0,4.0,78,0.00,,SKC,0.00,VWS V12.07,2013-11-21 14:46:00,
2013-11-21 08:52:00,49.8,43.6,30.13,ESE,111,1.0,4.0,79,0.00,,SKC,0.00,VWS V12.07,2013-11-21 14:52:00,
2013-11-21 08:58:00,49.7,43.5,30.13,East,97,0.0,4.0,79,0.00,,SKC,0.00,VWS V12.07,2013-11-21 14:58:00,
2013-11-21 09:04:00,49.7,43.5,30.13,ESE,110,0.0,1.0,79,0.00,,SKC,0.00,VWS V12.07,2013-11-21 15:04:00,
2013-11-21 09:10:00,49.8,43.9,30.14,ESE,110,0.0,1.0,80,0.00,,SKC,0.00,VWS V12.07,2013-11-21 15:10:00,
2013-11-21 09:16:00,49.8,43.6,30.14,ESE,114,0.0,2.0,79,0.00,,SKC,0.00,VWS V12.07,2013-11-21 15:16:00,
2013-11-21 09:23:00,49.9,43.7,30.14,SSE,148,0.0,2.0,79,0.00,,SKC,0.00,VWS V12.07,2013-11-21 15:23:00,
2013-11-21 09:29:00,49.9,43.7,30.14,ESE,120,0.0,2.0,79,0.00,,SKC,0.00,VWS V12.07,2013-11-21 15:29:00,
2013-11-21 09:35:00,49.9,43.7,30.14,SE,130,0.0,0.0,79,0.00,,SKC,0.00,VWS V12.07,2013-11-21 15:35:00,
2013-11-21 09:41:00,49.9,43.7,30.14,East,101,0.0,2.0,79,0.00,,SKC,0.00,VWS V12.07,2013-11-21 15:41:00,
2013-11-21 09:47:00,49.9,44.0,30.15,SE,137,0.0,2.0,80,0.00,,SKC,0.00,VWS V12.07,2013-11-21 15:47:00,
2013-11-21 09:53:00,49.8,44.2,30.16,SSE,165,0.0,2.0,81,0.00,,SKC,0.00,VWS V12.07,2013-11-21 15:53:00,
2013-11-21 09:59:00,49.6,44.3,30.16,SSE,149,0.0,2.0,82,0.00,,SKC,0.00,VWS V12.07,2013-11-21 15:59:00,
2013-11-21 10:05:00,49.5,44.9,30.16,SSE,149,0.0,0.0,84,0.00,,SKC,0.00,VWS V12.07,2013-11-21 16:05:00,
2013-11-21 10:11:00,49.5,45.2,30.16,SSE,149,0.0,0.0,85,0.01,,SKC,0.01,VWS V12.07,2013-11-21 16:11:00,
2013-11-21 10:17:00,49.4,45.7,30.16,SSE,149,0.0,0.0,87,0.01,,SKC,0.01,VWS V12.07,2013-11-21 16:17:00,
2013-11-21 10:23:00,49.2,45.8,30.17,SSE,149,0.0,0.0,88,0.02,,SKC,0.02,VWS V12.07,2013-11-21 16:23:00,
2013-11-21 10:29:00,49.1,46.0,30.17,SSE,149,0.0,0.0,89,0.02,,SKC,0.02,VWS V12.07,2013-11-21 16:29:00,
2013-11-21 10:35:00,49.0,46.2,30.17,SSE,151,0.0,0.0,90,0.03,,SKC,0.03,VWS V12.07,2013-11-21 16:35:00,
2013-11-21 10:41:00,48.8,46.0,30.17,South,186,0.0,0.0,90,0.04,,SKC,0.04,VWS V12.07,2013-11-21 16:41:00,
2013-11-21 10:47:00,48.7,45.9,30.17,SSW,204,0.0,0.0,90,0.04,,SKC,0.04,VWS V12.07,2013-11-21 16:47:00,
2013-11-21 10:53:00,48.7,46.2,30.17,SSW,204,0.0,0.0,91,0.05,,SKC,0.05,VWS V12.07,2013-11-21 16:53:00,
2013-11-21 10:59:00,48.7,46.2,30.17,SSW,204,0.0,0.0,91,0.06,,SKC,0.06,VWS V12.07,2013-11-21 16:59:00,
2013-11-21 11:05:00,48.6,46.1,30.17,SSW,205,0.0,0.0,91,0.06,,SKC,0.06,VWS V12.07,2013-11-21 17:05:00,
2013-11-21 11:11:00,48.5,46.0,30.17,SSW,204,0.0,0.0,91,0.07,,SKC,0.07,VWS V12.07,2013-11-21 17:11:00,
2013-11-21 11:17:00,48.4,46.2,30.17,SW,221,0.0,0.0,92,0.07,,SKC,0.08,VWS V12.07,2013-11-21 17:17:00,
2013-11-21 11:23:00,48.3,46.1,30.17,West,262,0.0,4.0,92,0.08,,SKC,0.08,VWS V12.07,2013-11-21 17:23:00,
2013-11-21 11:29:00,48.1,45.9,30.17,SW,218,0.0,4.0,92,0.09,,SKC,0.09,VWS V12.07,2013-11-21 17:29:00,
2013-11-21 11:35:00,48.1,46.2,30.17,WSW,253,1.0,2.0,93,0.08,,SKC,0.10,VWS V12.07,2013-11-21 17:35:00,
2013-11-21 11:41:00,48.0,46.1,30.17,SSW,205,0.0,3.0,93,0.08,,SKC,0.10,VWS V12.07,2013-11-21 17:41:00,
2013-11-21 11:47:00,48.0,46.1,30.17,SW,236,0.0,3.0,93,0.09,,SKC,0.11,VWS V12.07,2013-11-21 17:47:00,
2013-11-21 11:53:00,48.0,46.4,30.17,South,191,2.0,3.0,94,0.10,,SKC,0.12,VWS V12.07,2013-11-21 17:53:00,
2013-11-21 11:59:00,48.0,46.4,30.17,SW,219,1.0,3.0,94,0.11,,SKC,0.13,VWS V12.07,2013-11-21 17:59:00,
2013-11-21 12:05:00,48.0,46.4,30.16,West,271,0.0,2.0,94,0.08,,SKC,0.14,VWS V12.07,2013-11-21 18:05:00,
2013-11-21 12:11:00,48.0,46.4,30.15,West,269,0.0,2.0,94,0.09,,SKC,0.15,VWS V12.07,2013-11-21 18:11:00,
2013-11-21 12:17:00,48.1,46.5,30.14,NNE,25,0.0,2.0,94,0.09,,SKC,0.15,VWS V12.07,2013-11-21 18:17:00,
2013-11-21 12:23:00,48.1,46.5,30.14,ENE,70,0.0,2.0,94,0.10,,SKC,0.16,VWS V12.07,2013-11-21 18:23:00,
2013-11-21 12:29:00,48.3,46.9,30.14,ENE,69,0.0,2.0,95,0.11,,SKC,0.17,VWS V12.07,2013-11-21 18:29:00,
2013-11-21 12:35:00,48.2,46.6,30.13,ENE,76,0.0,1.0,94,0.09,,SKC,0.18,VWS V12.07,2013-11-21 18:35:00,
2013-11-21 12:41:00,48.4,47.0,30.12,ENE,76,0.0,1.0,95,0.09,,SKC,0.18,VWS V12.07,2013-11-21 18:41:00,
2013-11-21 12:47:00,48.5,46.9,30.12,East,90,0.0,2.0,94,0.09,,SKC,0.18,VWS V12.07,2013-11-21 18:47:00,
2013-11-21 12:53:00,48.7,47.0,30.12,East,100,0.0,2.0,94,0.10,,SKC,0.19,VWS V12.07,2013-11-21 18:53:00,
2013-11-21 12:59:00,48.7,47.0,30.13,East,100,0.0,2.0,94,0.10,,SKC,0.19,VWS V12.07,2013-11-21 18:59:00,
2013-11-21 13:05:00,49.0,47.3,30.14,SW,232,0.0,1.0,94,0.06,,SKC,0.19,VWS V12.07,2013-11-21 19:05:00,
2013-11-21 13:11:00,49.1,47.5,30.14,West,259,0.0,1.0,94,0.06,,SKC,0.19,VWS V12.07,2013-11-21 19:11:00,
2013-11-21 13:17:00,48.9,47.2,30.15,WSW,257,0.0,1.0,94,0.07,,SKC,0.20,VWS V12.07,2013-11-21 19:17:00,
2013-11-21 13:23:00,48.7,47.0,30.15,West,271,0.0,2.0,94,0.07,,SKC,0.20,VWS V12.07,2013-11-21 19:23:00,
2013-11-21 13:29:00,48.5,46.9,30.15,NW,306,1.0,2.0,94,0.08,,SKC,0.21,VWS V12.07,2013-11-21 19:29:00,
2013-11-21 13:35:00,48.4,46.8,30.14,West,276,0.0,0.0,94,0.05,,SKC,0.22,VWS V12.07,2013-11-21 19:35:00,
2013-11-21 13:41:00,48.5,47.1,30.13,West,276,0.0,0.0,95,0.06,,SKC,0.23,VWS V12.07,2013-11-21 19:41:00,
2013-11-21 13:47:00,48.5,47.1,30.13,NW,305,0.0,0.0,95,0.06,,SKC,0.23,VWS V12.07,2013-11-21 19:47:00,
2013-11-21 13:53:00,48.6,47.2,30.13,NW,305,0.0,0.0,95,0.07,,SKC,0.24,VWS V12.07,2013-11-21 19:53:00,
2013-11-21 13:59:00,48.6,47.2,30.13,East,84,0.0,0.0,95,0.07,,SKC,0.24,VWS V12.07,2013-11-21 19:59:00,
2013-11-21 14:05:00,48.5,47.1,30.12,East,101,0.0,0.0,95,0.06,,SKC,0.25,VWS V12.07,2013-11-21 20:05:00,
2013-11-21 14:11:00,48.6,47.2,30.12,East,101,0.0,0.0,95,0.06,,SKC,0.25,VWS V12.07,2013-11-21 20:11:00,
2013-11-21 14:17:00,48.7,47.3,30.13,East,101,0.0,0.0,95,0.06,,SKC,0.25,VWS V12.07,2013-11-21 20:17:00,
2013-11-21 14:23:00,48.6,47.2,30.13,East,101,0.0,0.0,95,0.07,,SKC,0.26,VWS V12.07,2013-11-21 20:23:00,
2013-11-21 14:29:00,48.7,47.3,30.12,East,101,0.0,0.0,95,0.07,,SKC,0.26,VWS V12.07,2013-11-21 20:29:00,
2013-11-21 14:35:00,48.8,47.4,30.13,ESE,102,0.0,0.0,95,0.04,,SKC,0.26,VWS V12.07,2013-11-21 20:35:00,
2013-11-21 14:41:00,48.7,47.3,30.13,ESE,111,1.0,1.0,95,0.04,,SKC,0.26,VWS V12.07,2013-11-21 20:41:00,
2013-11-21 14:47:00,48.8,47.4,30.13,ESE,103,0.0,1.0,95,0.05,,SKC,0.27,VWS V12.07,2013-11-21 20:47:00,
2013-11-21 14:53:00,48.7,47.3,30.13,NNW,341,0.0,1.0,95,0.05,,SKC,0.27,VWS V12.07,2013-11-21 20:53:00,
2013-11-21 14:59:00,48.5,47.1,30.14,North,8,0.0,2.0,95,0.05,,SKC,0.27,VWS V12.07,2013-11-21 20:59:00,
2013-11-21 15:05:00,48.4,47.0,30.14,North,8,0.0,0.0,95,0.03,,SKC,0.27,VWS V12.07,2013-11-21 21:05:00,
2013-11-21 15:11:00,48.5,47.1,30.14,North,8,0.0,0.0,95,0.03,,SKC,0.27,VWS V12.07,2013-11-21 21:11:00,
2013-11-21 15:17:00,48.5,47.1,30.15,North,8,0.0,0.0,95,0.03,,SKC,0.27,VWS V12.07,2013-11-21 21:17:00,
2013-11-21 15:23:00,48.5,47.1,30.15,North,8,0.0,1.0,95,0.03,,SKC,0.27,VWS V12.07,2013-11-21 21:23:00,
2013-11-21 15:29:00,48.6,47.2,30.13,East,98,4.0,4.0,95,0.03,,SKC,0.27,VWS V12.07,2013-11-21 21:29:00,
2013-11-21 15:35:00,48.7,47.3,30.12,East,91,2.0,4.0,95,0.01,,SKC,0.27,VWS V12.07,2013-11-21 21:35:00,
2013-11-21 15:41:00,48.7,47.3,30.12,ENE,58,1.0,5.0,95,0.01,,SKC,0.27,VWS V12.07,2013-11-21 21:41:00,
2013-11-21 15:47:00,48.6,47.2,30.14,East,99,0.0,5.0,95,0.01,,SKC,0.27,VWS V12.07,2013-11-21 21:47:00,
2013-11-21 15:53:00,48.6,47.2,30.15,NNW,336,0.0,5.0,95,0.01,,SKC,0.27,VWS V12.07,2013-11-21 21:53:00,
2013-11-21 15:59:00,48.5,47.1,30.16,NNW,336,0.0,5.0,95,0.01,,SKC,0.27,VWS V12.07,2013-11-21 21:59:00,
2013-11-21 16:05:00,48.4,47.0,30.16,NNW,328,0.0,0.0,95,0.00,,SKC,0.27,VWS V12.07,2013-11-21 22:05:00,
2013-11-21 16:11:00,48.3,46.9,30.17,NNW,328,0.0,1.0,95,0.00,,SKC,0.27,VWS V12.07,2013-11-21 22:11:00,
2013-11-21 16:17:00,48.1,46.7,30.18,NNE,30,0.0,2.0,95,0.00,,SKC,0.27,VWS V12.07,2013-11-21 22:17:00,
2013-11-21 16:23:00,48.1,46.7,30.16,ENE,61,0.0,2.0,95,0.00,,SKC,0.27,VWS V12.07,2013-11-21 22:23:00,
2013-11-21 16:29:00,47.9,46.5,30.14,ENE,60,1.0,5.0,95,0.00,,SKC,0.27,VWS V12.07,2013-11-21 22:29:00,
2013-11-21 16:35:00,47.8,46.4,30.17,NW,304,0.0,2.0,95,0.00,,SKC,0.27,VWS V12.07,2013-11-21 22:35:00,
2013-11-21 16:41:00,47.7,46.3,30.17,NW,304,0.0,2.0,95,0.00,,SKC,0.27,VWS V12.07,2013-11-21 22:41:00,
2013-11-21 16:47:00,47.7,46.3,30.17,WNW,303,0.0,2.0,95,0.00,,SKC,0.27,VWS V12.07,2013-11-21 22:47:00,
2013-11-21 16:53:00,47.6,46.2,30.18,WNW,284,0.0,2.0,95,0.00,,SKC,0.27,VWS V12.07,2013-11-21 22:53:00,
2013-11-21 16:59:00,47.6,46.2,30.18,WNW,285,0.0,2.0,95,0.00,,SKC,0.27,VWS V12.07,2013-11-21 22:59:00,
2013-11-21 17:05:00,47.5,46.4,30.18,NNE,18,0.0,2.0,96,0.00,,SKC,0.27,VWS V12.07,2013-11-21 23:05:00,
2013-11-21 17:11:00,47.4,46.3,30.18,NNE,30,0.0,3.0,96,0.00,,SKC,0.27,VWS V12.07,2013-11-21 23:11:00,
2013-11-21 17:17:00,47.4,46.3,30.18,North,357,1.0,3.0,96,0.00,,SKC,0.27,VWS V12.07,2013-11-21 23:17:00,
2013-11-21 17:23:00,47.3,46.2,30.19,NW,321,0.0,3.0,96,0.00,,SKC,0.27,VWS V12.07,2013-11-21 23:23:00,
2013-11-21 17:30:00,47.3,46.2,30.19,WNW,302,1.0,3.0,96,0.00,,SKC,0.27,VWS V12.07,2013-11-21 23:30:00,
2013-11-21 17:36:00,47.3,46.2,30.19,WNW,302,0.0,1.0,96,0.00,,SKC,0.27,VWS V12.07,2013-11-21 23:36:00,
2013-11-21 17:42:00,47.3,46.2,30.20,NW,314,0.0,2.0,96,0.00,,SKC,0.27,VWS V12.07,2013-11-21 23:42:00,
2013-11-21 17:48:00,47.2,46.1,30.20,NW,314,0.0,3.0,96,0.00,,SKC,0.27,VWS V12.07,2013-11-21 23:48:00,
2013-11-21 17:54:00,47.2,46.1,30.20,NNW,340,2.0,4.0,96,0.00,,SKC,0.27,VWS V12.07,2013-11-21 23:54:00,
2013-11-21 18:05:00,47.0,45.9,30.21,North,351,3.0,5.0,96,0.00,,SKC,0.27,VWS V12.07,2013-11-22 00:05:00,
2013-11-21 18:11:00,46.9,45.8,30.21,NNE,25,0.0,6.0,96,0.00,,SKC,0.27,VWS V12.07,2013-11-22 00:11:00,
2013-11-21 18:17:00,46.7,45.6,30.21,NNW,347,3.0,7.0,96,0.00,,SKC,0.27,VWS V12.07,2013-11-22 00:17:00,
2013-11-21 18:23:00,46.6,45.5,30.21,NW,304,3.0,7.0,96,0.00,,SKC,0.27,VWS V12.07,2013-11-22 00:23:00,
2013-11-21 18:29:00,46.5,45.4,30.21,NNE,26,1.0,7.0,96,0.00,,SKC,0.27,VWS V12.07,2013-11-22 00:29:00,
2013-11-21 18:35:00,46.4,45.3,30.21,NNW,334,2.0,5.0,96,0.00,,SKC,0.27,VWS V12.07,2013-11-22 00:35:00,
2013-11-21 18:41:00,46.2,45.1,30.22,NW,315,0.0,5.0,96,0.00,,SKC,0.27,VWS V12.07,2013-11-22 00:41:00,
2013-11-21 18:47:00,46.0,44.9,30.22,NE,47,2.0,7.0,96,0.00,,SKC,0.27,VWS V12.07,2013-11-22 00:47:00,
2013-11-21 18:53:00,45.8,44.5,30.22,NNW,329,2.0,10.0,95,0.00,,SKC,0.27,VWS V12.07,2013-11-22 00:53:00,
2013-11-21 18:59:00,45.6,44.2,30.22,NNW,341,4.0,11.0,95,0.00,,SKC,0.27,VWS V12.07,2013-11-22 00:59:00,
2013-11-21 19:05:00,45.4,44.0,30.22,North,5,1.0,8.0,95,0.00,,SKC,0.27,VWS V12.07,2013-11-22 01:05:00,
2013-11-21 19:11:00,45.2,43.9,30.23,North,349,2.0,8.0,95,0.00,,SKC,0.27,VWS V12.07,2013-11-22 01:11:00,
2013-11-21 19:17:00,45.1,43.8,30.22,NE,47,8.0,9.0,95,0.00,,SKC,0.27,VWS V12.07,2013-11-22 01:17:00,
2013-11-21 19:23:00,45.1,43.8,30.23,NW,319,2.0,9.0,95,0.00,,SKC,0.27,VWS V12.07,2013-11-22 01:23:00,
2013-11-21 19:29:00,44.9,43.6,30.23,North,357,3.0,9.0,95,0.00,,SKC,0.27,VWS V12.07,2013-11-22 01:29:00,
2013-11-21 19:35:00,44.8,43.5,30.23,NE,37,4.0,5.0,95,0.00,,SKC,0.27,VWS V12.07,2013-11-22 01:35:00,
2013-11-21 19:41:00,44.5,43.2,30.23,NNW,345,1.0,6.0,95,0.00,,SKC,0.27,VWS V12.07,2013-11-22 01:41:00,
2013-11-21 19:47:00,44.3,43.0,30.24,NE,37,2.0,7.0,95,0.00,,SKC,0.27,VWS V12.07,2013-11-22 01:47:00,
2013-11-21 19:53:00,44.1,42.8,30.24,NNW,345,3.0,8.0,95,0.00,,SKC,0.27,VWS V12.07,2013-11-22 01:53:00,
2013-11-21 19:59:00,43.9,42.6,30.24,NNE,30,5.0,9.0,95,0.00,,SKC,0.27,VWS V12.07,2013-11-22 01:59:00,
2013-11-21 20:05:00,43.7,42.4,30.23,NW,318,8.0,12.0,95,0.00,,SKC,0.27,VWS V12.07,2013-11-22 02:05:00,
2013-11-21 20:08:00,43.7,42.4,30.23,NNW,345,7.0,12.0,95,0.00,,SKC,0.27,VWS V12.07,2013-11-22 02:08:00,
2013-11-21 20:11:00,43.6,42.3,30.23,NNE,29,3.0,12.0,95,0.00,,SKC,0.27,VWS V12.07,2013-11-22 02:11:00,
2013-11-21 20:17:00,43.5,42.2,30.24,NNW,340,2.0,12.0,95,0.00,,SKC,0.27,VWS V12.07,2013-11-22 02:17:00,
2013-11-21 20:20:00,43.5,42.2,30.24,ENE,74,0.0,12.0,95,0.00,,SKC,0.27,VWS V12.07,2013-11-22 02:20:00,
2013-11-21 20:23:00,43.4,42.1,30.24,WNW,285,3.0,12.0,95,0.00,,SKC,0.27,VWS V12.07,2013-11-22 02:23:00,
2013-11-21 20:29:00,43.3,42.0,30.25,NNE,26,2.0,12.0,95,0.00,,SKC,0.27,VWS V12.07,2013-11-22 02:29:00,
2013-11-21 20:35:00,43.2,41.9,30.25,WNW,290,4.0,12.0,95,0.00,,SKC,0.27,VWS V12.07,2013-11-22 02:35:00,
2013-11-21 20:38:00,43.1,41.8,30.25,NNE,33,6.0,12.0,95,0.00,,SKC,0.27,VWS V12.07,2013-11-22 02:38:00,
2013-11-21 20:44:00,43.1,41.8,30.25,NNE,12,3.0,12.0,95,0.00,,SKC,0.27,VWS V12.07,2013-11-22 02:44:00,
2013-11-21 20:50:00,42.9,41.6,30.25,North,358,5.0,12.0,95,0.00,,SKC,0.27,VWS V12.07,2013-11-22 02:50:00,
2013-11-21 20:56:00,42.8,41.5,30.25,NNW,348,4.0,12.0,95,0.00,,SKC,0.27,VWS V12.07,2013-11-22 02:56:00,
2013-11-21 21:02:00,42.7,41.6,30.25,North,4,5.0,7.0,96,0.00,,SKC,0.27,VWS V12.07,2013-11-22 03:02:00,
2013-11-21 21:08:00,42.6,41.5,30.25,North,354,3.0,9.0,96,0.00,,SKC,0.27,VWS V12.07,2013-11-22 03:08:00,
2013-11-21 21:14:00,42.5,41.4,30.26,North,358,6.0,9.0,96,0.01,,SKC,0.28,VWS V12.07,2013-11-22 03:14:00,
2013-11-21 21:20:00,42.5,41.4,30.26,NW,314,2.0,9.0,96,0.01,,SKC,0.28,VWS V12.07,2013-11-22 03:20:00,
2013-11-21 21:26:00,42.5,41.4,30.26,NNE,25,4.0,9.0,96,0.01,,SKC,0.28,VWS V12.07,2013-11-22 03:26:00,
2013-11-21 21:32:00,42.4,41.3,30.26,NW,323,5.0,7.0,96,0.01,,SKC,0.28,VWS V12.07,2013-11-22 03:32:00,
2013-11-21 21:38:00,42.3,41.2,30.27,NE,46,5.0,9.0,96,0.01,,SKC,0.28,VWS V12.07,2013-11-22 03:38:00,
2013-11-21 21:44:00,42.3,41.2,30.27,NW,317,5.0,9.0,96,0.01,,SKC,0.28,VWS V12.07,2013-11-22 03:44:00,
2013-11-21 21:50:00,42.2,41.1,30.27,NW,311,3.0,9.0,96,0.02,,SKC,0.29,VWS V12.07,2013-11-22 03:50:00,
2013-11-21 21:56:00,42.1,41.0,30.27,NNW,345,2.0,10.0,96,0.02,,SKC,0.29,VWS V12.07,2013-11-22 03:56:00,
2013-11-21 22:02:00,42.0,40.9,30.27,NW,315,3.0,7.0,96,0.02,,SKC,0.29,VWS V12.07,2013-11-22 04:02:00,
2013-11-21 22:08:00,41.9,40.8,30.27,North,349,5.0,9.0,96,0.02,,SKC,0.29,VWS V12.07,2013-11-22 04:08:00,
2013-11-21 22:14:00,41.8,40.8,30.28,WNW,302,2.0,9.0,96,0.03,,SKC,0.30,VWS V12.07,2013-11-22 04:14:00,
2013-11-21 22:20:00,41.7,40.7,30.28,NNW,340,3.0,11.0,96,0.03,,SKC,0.30,VWS V12.07,2013-11-22 04:20:00,
2013-11-21 22:26:00,41.6,40.5,30.28,NW,318,4.0,11.0,96,0.07,,SKC,0.34,VWS V12.07,2013-11-22 04:26:00,
2013-11-21 22:32:00,41.6,40.5,30.29,North,6,4.0,5.0,96,0.09,,SKC,0.37,VWS V12.07,2013-11-22 04:32:00,
2013-11-21 22:38:00,41.5,40.5,30.28,NNE,23,2.0,7.0,96,0.10,,SKC,0.38,VWS V12.07,2013-11-22 04:38:00,
2013-11-21 22:44:00,41.4,40.3,30.28,NNE,13,5.0,9.0,96,0.11,,SKC,0.39,VWS V12.07,2013-11-22 04:44:00,
2013-11-21 22:50:00,41.3,40.2,30.28,NE,37,6.0,9.0,96,0.13,,SKC,0.41,VWS V12.07,2013-11-22 04:50:00,
2013-11-21 22:56:00,41.3,40.2,30.29,North,356,2.0,11.0,96,0.14,,SKC,0.42,VWS V12.07,2013-11-22 04:56:00,
2013-11-21 23:02:00,41.3,40.5,30.29,NNE,23,6.0,7.0,97,0.13,,SKC,0.42,VWS V12.07,2013-11-22 05:02:00,
2013-11-21 23:05:00,41.2,40.4,30.29,NW,316,3.0,8.0,97,0.14,,SKC,0.43,VWS V12.07,2013-11-22 05:05:00,
2013-11-21 23:08:00,41.2,40.4,30.29,NNW,337,4.0,9.0,97,0.15,,SKC,0.44,VWS V12.07,2013-11-22 05:08:00,
2013-11-21 23:11:00,41.2,40.4,30.29,NW,313,3.0,9.0,97,0.16,,SKC,0.45,VWS V12.07,2013-11-22 05:11:00,
2013-11-21 23:17:00,41.1,40.3,30.30,West,280,1.0,9.0,97,0.17,,SKC,0.46,VWS V12.07,2013-11-22 05:17:00,
2013-11-21 23:23:00,41.1,40.3,30.30,NNE,19,5.0,11.0,97,0.18,,SKC,0.47,VWS V12.07,2013-11-22 05:23:00,
2013-11-21 23:29:00,41.0,40.2,30.30,NNE,13,2.0,11.0,97,0.19,,SKC,0.48,VWS V12.07,2013-11-22 05:29:00,
2013-11-21 23:35:00,40.8,40.0,30.30,NW,319,3.0,6.0,97,0.13,,SKC,0.49,VWS V12.07,2013-11-22 05:35:00,
2013-11-21 23:41:00,40.2,39.2,30.31,NNW,335,7.0,10.0,96,0.14,,SKC,0.50,VWS V12.07,2013-11-22 05:41:00,
2013-11-21 23:47:00,39.7,38.7,30.31,NNW,337,9.0,11.0,96,0.15,,SKC,0.51,VWS V12.07,2013-11-22 05:47:00,
2013-11-21 23:53:00,39.5,38.5,30.31,North,353,6.0,11.0,96,0.15,,SKC,0.51,VWS V12.07,2013-11-22 05:53:00,
2013-11-21 23:59:00,39.1,38.1,30.31,WNW,300,4.0,12.0,96,0.16,,SKC,0.52,VWS V12.07,2013-11-22 05:59:00,